Avalon, CA

3:33 PM PDT on March 23, 2017 (GMT -0700)
Catalina

Weather History for KAVX - October, 2013

Change the Weather History Date:

Wednesday, October 16, 2013

  Actual Average Record
Temperature  
Mean Temperature 72 °F -  
Max Temperature 80 °F 69 °F 86 °F (2008)
Min Temperature 66 °F 55 °F 50 °F (2005)
Cooling Degree Days 8    
Growing Degree Days 22 (Base 50)    
Moisture  
Dew Point 23 °F    
Average Humidity 16    
Maximum Humidity 24    
Minimum Humidity 10    
Precipitation  
Precipitation 0.00 in - - ()
Sea Level Pressure  
Sea Level Pressure 29.99 in    
Wind  
Wind Speed 9 mph (ESE)    
Max Wind Speed 16 mph    
Max Gust Speed -    
Visibility 10 miles    
Events      
Averages and records for this station are not official NWS values.
T = Trace of Precipitation, MM = Missing Value Source: NWS Daily Summary

Daily Weather History Graph

Daily Weather History Graph

Search for Another Location

Airport or City:

Trip Planner

Search our weather history database for the weather conditions in past years. The results will help you decide how hot, cold, wet, or windy it might be!

Date:

Astronomy

Oct. 16, 2013 Rise Set
Actual Time 6:59 AM PDT 6:18 PM PDT
Civil Twilight 6:34 AM PDT 6:43 PM PDT
Nautical Twilight 6:05 AM PDT 7:12 PM PDT
Astronomical Twilight 5:36 AM PDT 7:41 PM PDT
Moon 4:56 PM PDT (10/16) 4:38 AM PDT (10/16)
Length of Visible Light 12h 09m
Length of Day
11h 19m
Waxing Gibbous, 94% of the Moon is Illuminated
Oct 16
Waxing Gibbous
Oct 18
Full
Oct 26
Last Quarter
Nov 3
New
Nov 9
First Quarter

Hourly Weather History & Observations

Time (PDT) Temp. Dew Point Humidity Pressure Visibility Wind Dir Wind Speed Gust Speed Precip Events Conditions
12:51 AM 71.1 °F 23.0 °F 16% 29.94 in 10.0 mi ENE 9.2 mph - N/A   Clear
1:51 AM 70.0 °F 23.0 °F 17% 29.94 in 10.0 mi ENE 8.1 mph - N/A   Clear
2:51 AM 66.0 °F 28.0 °F 24% 29.95 in 10.0 mi East 12.7 mph - N/A   Clear
3:51 AM 68.0 °F 28.9 °F 23% 29.94 in 10.0 mi SE 16.1 mph - N/A   Clear
4:51 AM 68.0 °F 26.1 °F 21% 29.96 in 10.0 mi ESE 12.7 mph - N/A   Clear
5:51 AM 69.1 °F 23.0 °F 18% 29.97 in 10.0 mi ESE 9.2 mph - N/A   Clear
6:51 AM 68.0 °F 21.9 °F 17% 29.99 in 10.0 mi East 13.8 mph - N/A   Clear
7:51 AM 68.0 °F 27.0 °F 21% 30.01 in 10.0 mi East 9.2 mph - N/A   Clear
8:51 AM 72.0 °F 27.0 °F 19% 30.03 in 10.0 mi ENE 5.8 mph - N/A   Clear
9:51 AM 75.0 °F 26.1 °F 16% 30.04 in 10.0 mi ESE 5.8 mph - N/A   Clear
10:51 AM 75.9 °F 23.0 °F 14% 30.04 in 10.0 mi ESE 6.9 mph - N/A   Clear
11:51 AM 77.0 °F 19.0 °F 11% 30.03 in 10.0 mi SE 9.2 mph - N/A   Clear
12:51 PM 79.0 °F 18.0 °F 10% 30.01 in 10.0 mi East 5.8 mph - N/A   Clear
1:51 PM 78.1 °F 21.0 °F 12% 29.99 in 10.0 mi Variable 6.9 mph - N/A   Clear
2:51 PM 78.1 °F 16.0 °F 10% 30.00 in 10.0 mi NNE 4.6 mph - N/A   Clear
3:51 PM 77.0 °F 18.0 °F 11% 29.99 in 10.0 mi NNE 3.5 mph - N/A   Clear
4:51 PM 75.0 °F 24.1 °F 15% 29.98 in 10.0 mi WSW 5.8 mph - N/A   Clear
5:51 PM 73.9 °F 24.1 °F 16% 29.98 in 10.0 mi WSW 5.8 mph - N/A   Clear
6:51 PM 71.1 °F 19.9 °F 14% 29.99 in 10.0 mi WSW 8.1 mph - N/A   Clear
7:51 PM 70.0 °F 19.0 °F 14% 30.00 in 10.0 mi WSW 8.1 mph - N/A   Clear
8:51 PM 69.1 °F 21.9 °F 17% 30.01 in 10.0 mi WSW 6.9 mph - N/A   Clear
9:51 PM 66.9 °F 23.0 °F 19% 30.01 in 10.0 mi West 8.1 mph - N/A   Clear
10:51 PM 66.9 °F 24.1 °F 20% 30.00 in 10.0 mi West 9.2 mph - N/A   Clear
11:51 PM 66.9 °F 21.0 °F 17% 30.00 in 10.0 mi WNW 8.1 mph - N/A   Clear